Temp
16 15 16 17 18 17 18 18 19 19 20 20 21 21 22 22 23 23 19 25 27 28 27 25 24 25 25 24 24 22 21 21 22 22 23 23 24 23 24 23 23 22 20 21 20
15 15 15 16 16 17 17 18 18 19 19 20 20 21 22 22 22 22 25 27 27 28 27 26 23 24 23 24 23 22 20 22 23 23 24 23 23 23 24 22 22 21 20 19 20
15 15 15 14 16 17 17 18 18 18 19 19 20 20 21 21 20 23 28 29 29 28 27 27 27 25 25 24 24 22 23 23 25 24 23 23 24 23 21 22 20 20 19 18 17
12 13 13 14 16 16 16 17 17 17 18 19 19 20 21 21 22 27 27 27 28 29 26 27 26 26 25 25 24 26 24 24 25 24 22 23 23 23 22 22 22 20 18 17 16
12 12 13 15 16 16 17 17 17 17 18 18 19 20 20 18 19 27 27 26 27 25 26 24 24 25 25 25 25 25 25 25 25 22 24 23 24 24 22 22 20 19 18 16 15
9 11 12 13 14 15 16 17 17 17 18 18 19 19 18 18 25 26 26 26 28 25 25 25 25 24 25 25 25 26 26 26 25 24 24 24 24 24 23 20 20 18 17 16 15
8 8 9 10 12 12 14 16 17 17 18 18 18 17 15 21 25 26 25 25 27 27 24 26 27 26 26 26 26 25 26 25 26 24 25 24 24 23 22 20 19 18 17 16 15
8 8 8 9 10 11 13 16 17 18 19 19 18 14 16 24 25 24 25 25 26 26 27 28 27 26 27 27 25 25 23 23 25 24 25 25 23 24 21 19 18 18 17 16 16
8 8 8 9 9 10 13 16 17 18 17 17 15 14 18 23 23 25 26 24 27 26 27 28 27 25 27 25 24 22 24 24 24 23 25 24 23 24 20 20 18 17 16 16 16
8 8 8 8 8 9 13 17 18 15 13 14 15 17 20 23 25 26 26 26 26 24 26 26 23 24 21 22 22 24 24 24 24 25 24 23 22 22 20 20 19 17 16 15 15
8 8 7 7 8 8 12 16 14 15 15 17 18 18 21 24 25 25 25 25 26 24 23 23 22 21 22 23 24 24 24 23 24 25 24 23 22 24 20 19 18 16 15 15 15
8 8 8 7 8 8 11 11 11 12 12 16 17 19 21 22 22 23 26 24 23 23 22 22 22 22 23 24 24 23 23 22 23 23 22 23 22 21 20 20 19 17 15 15 15
9 8 8 8 8 9 9 11 12 13 12 17 19 20 20 21 21 21 24 23 24 22 22 21 23 23 23 24 24 23 23 22 22 23 23 23 21 22 22 20 19 17 17 15 14
8 8 8 8 8 7 9 11 13 13 14 17 19 20 21 22 21 23 25 25 24 23 21 22 23 24 23 24 23 22 23 23 23 22 20 22 18 21 21 20 18 16 15 15 14
8 8 8 7 6 6 8 11 12 13 15 20 20 23 21 23 22 23 25 25 22 23 22 24 22 23 23 24 23 23 23 23 23 21 21 21 17 20 20 21 19 16 16 15 14
8 8 8 7 6 7 8 11 12 15 14 19 22 21 20 22 23 24 24 25 24 23 23 23 23 23 24 24 23 24 24 20 18 17 17 20 19 19 20 21 21 18 16 15 14
8 7 7 7 7 8 8 10 14 13 19 20 22 21 22 21 22 23 23 23 23 21 21 23 23 24 25 24 24 23 19 18 17 17 18 19 19 20 22 21 21 19 17 15 15
7 7 7 7 8 7 8 11 13 18 18 22 21 21 21 21 22 22 22 23 22 22 20 22 22 23 25 24 23 21 19 18 20 18 20 20 20 22 22 21 20 19 18 16 15
6 7 7 6 7 7 7 11 17 17 20 21 22 21 21 22 22 22 23 24 23 22 24 20 22 24 24 25 24 22 21 21 20 19 19 19 20 21 23 21 19 16 16 16 15
6 6 8 7 6 6 6 15 15 18 21 22 20 21 20 20 22 23 21 24 24 22 23 21 21 23 25 24 24 23 22 22 17 21 21 19 21 20 22 24 19 16 15 15 15
6 6 8 7 6 7 7 12 16 18 19 20 21 20 20 20 21 21 22 25 25 21 23 20 21 22 22 22 22 22 21 19 19 18 18 16 18 19 23 22 20 17 16 16 16
6 6 6 6 7 7 8 11 14 17 19 20 20 20 19 20 20 21 21 24 24 23 21 21 20 20 21 22 22 23 21 20 19 20 18 18 20 21 20 19 19 18 17 15 16
6 6 5 7 8 7 8 11 13 16 16 18 19 19 20 20 21 21 21 24 22 24 21 20 19 19 20 20 21 23 20 19 18 17 18 19 20 20 21 22 20 18 16 16 16
3 6 5 6 9 8 8 9 11 14 15 16 16 17 19 20 20 20 22 22 24 23 21 23 19 21 22 22 20 22 20 20 20 17 19 19 23 22 23 24 21 17 16 16 16
3 5 6 6 7 7 9 11 11 12 15 15 15 16 17 18 18 18 20 22 23 23 22 21 20 20 22 23 22 23 22 20 20 21 21 22 20 23 23 23 21 17 16 16 16
4 5 5 5 7 8 8 8 10 13 13 14 14 15 15 16 16 17 19 21 21 19 21 18 20 19 21 21 22 23 22 21 22 21 22 22 22 21 21 21 21 18 17 18 17
3 5 6 6 7 8 9 9 11 12 13 13 13 14 14 16 16 16 16 16 18 20 18 19 18 17 19 20 20 20 23 21 21 20 21 21 22 20 19 20 20 19 18 18 18
Height
809 809 799 798 797 798 801 800 798 794 790 787 786 783 779 778 777 773 768 768 771 773 775 776 777 779 782 784 786 793 819 829 821 818 805 791 793 790 785 791 789 789 790 790 792
808 804 802 801 799 800 799 796 794 792 788 786 783 782 778 776 774 764 759 763 768 769 772 772 775 777 786 786 788 799 820 812 798 797 795 793 792 791 792 794 794 793 791 792 794
804 802 801 801 799 796 795 792 793 790 787 783 782 780 777 775 775 754 754 757 760 765 769 770 771 775 785 785 786 794 803 791 782 781 785 790 790 788 795 801 792 792 791 793 795
804 803 803 801 795 792 791 790 791 787 783 780 780 778 776 775 788 751 751 752 753 759 766 766 770 779 787 790 780 790 781 781 775 774 783 787 784 789 790 786 779 785 787 792 796
801 800 797 793 790 788 787 788 788 784 782 779 778 776 774 774 762 749 748 751 752 757 760 764 773 777 788 782 779 784 776 774 771 774 775 778 782 787 788 781 781 786 790 793 794
799 796 794 792 790 789 787 786 785 782 779 776 773 773 773 779 750 748 748 750 751 756 756 760 765 768 778 778 779 771 771 772 774 777 777 782 783 784 781 782 785 788 791 792 794
797 795 793 791 789 786 784 783 780 777 774 771 769 771 772 751 745 745 743 745 747 749 754 753 759 767 769 776 765 770 778 776 777 780 780 779 790 789 777 782 787 789 792 795 795
793 792 791 788 786 783 779 776 775 771 768 765 764 769 764 740 740 738 741 739 745 748 750 752 760 764 766 763 771 780 787 800 780 780 778 782 800 777 775 782 787 790 792 794 795
789 788 786 783 781 778 775 771 770 766 761 760 763 766 759 738 734 729 734 737 741 745 749 753 756 766 769 780 789 794 802 800 792 781 782 787 792 774 775 779 785 789 793 794 795
789 787 784 783 781 776 769 766 763 761 762 763 763 769 743 734 728 726 726 732 738 743 751 755 766 776 784 792 812 802 801 795 798 783 785 790 790 778 777 779 782 787 791 793 795
789 786 787 785 782 778 771 766 764 765 762 751 750 744 733 729 726 725 726 730 735 744 764 759 781 789 782 779 778 785 791 797 789 779 785 788 787 770 775 779 784 786 788 791 792
785 784 786 783 779 776 772 770 773 776 767 743 742 741 730 733 738 726 725 735 743 757 759 772 778 770 769 774 779 786 793 799 788 779 787 785 786 777 776 771 773 779 785 788 789
779 780 779 777 775 771 769 769 770 769 767 735 726 724 725 728 734 729 726 728 739 756 762 771 762 760 769 773 782 785 790 792 793 781 782 784 793 780 769 769 771 775 777 783 786
774 776 777 775 775 770 768 767 766 765 769 736 722 709 712 717 729 714 716 723 735 749 757 760 752 760 768 772 775 789 776 779 785 793 812 784 821 789 774 774 771 773 775 776 782
769 770 772 773 772 769 767 764 763 764 789 715 709 693 695 706 709 712 710 719 738 740 749 752 756 761 768 766 767 778 768 776 780 794 796 794 818 793 778 774 768 766 768 772 776
762 765 768 769 770 767 765 762 762 775 766 715 696 701 708 705 706 705 711 712 719 737 739 742 737 747 753 751 757 756 768 787 797 805 824 796 804 800 782 766 756 755 761 767 772
757 759 761 763 765 765 764 763 771 769 709 705 698 697 701 710 710 707 715 725 734 753 754 744 747 738 737 755 756 765 790 817 824 827 822 792 801 788 756 748 747 747 754 759 767
751 753 753 757 761 764 764 765 761 702 707 686 689 691 702 702 707 707 716 722 720 726 749 757 764 744 735 747 763 772 784 812 819 826 805 789 795 772 746 740 739 738 746 756 764
745 746 745 749 757 762 765 758 700 695 685 693 687 696 702 696 701 709 707 708 710 714 730 754 753 729 731 731 742 766 781 768 790 794 803 793 776 755 740 742 744 749 752 756 760
739 741 739 742 752 760 765 710 698 682 677 682 696 689 703 701 702 702 709 689 701 704 705 730 753 732 726 728 734 744 749 777 797 801 803 796 783 778 752 742 747 753 755 755 759
735 732 729 736 746 754 746 701 694 680 679 684 686 694 691 695 693 701 695 683 682 702 702 723 736 741 732 741 748 754 762 771 778 791 805 819 794 754 742 736 738 745 750 751 753
727 725 727 729 737 734 725 701 689 683 680 678 678 683 689 687 691 692 691 682 673 683 710 711 732 751 739 726 723 729 746 754 781 784 787 789 774 738 738 737 731 737 748 750 755
718 721 725 724 717 722 716 708 701 691 686 684 682 678 677 683 689 684 682 670 673 679 700 707 732 754 749 739 730 731 740 746 758 771 781 783 771 735 734 730 728 735 744 748 754
722 718 718 719 705 711 715 712 706 694 693 689 690 684 679 681 679 686 681 676 670 675 681 684 718 720 728 730 732 736 738 741 744 772 767 767 746 737 730 724 730 736 740 747 751
716 710 705 708 709 710 708 701 702 705 691 690 691 688 685 685 688 692 683 678 676 675 681 692 712 713 707 710 718 717 725 733 738 736 749 743 747 729 724 722 726 731 739 744 750
711 709 710 709 705 707 708 706 702 695 696 692 695 689 689 693 695 694 687 684 686 689 689 696 707 707 712 707 710 715 711 718 717 727 728 726 733 719 718 718 721 726 734 737 739
712 709 709 704 701 702 698 700 695 696 692 694 695 696 698 694 691 690 690 690 693 694 698 699 707 717 723 710 716 716 706 713 716 718 719 732 719 717 722 720 717 721 727 728 732
Wind_Speed
15 16 17 18 16 16 17 18 19 20 20 20 20 19 18 19 18 17 9 17 16 23 20 4 10 11 7 4 5 3 3 3 5 3 7 1 3 1 1 6 1 1 4 2 17
15 16 17 17 17 17 18 19 19 20 20 20 20 19 18 17 17 22 23 23 23 17 11 13 6 10 2 4 3 4 3 7 7 6 6 4 5 7 3 3 1 2 4 12 13
18 18 18 19 18 18 20 21 21 21 20 19 20 18 16 12 4 9 16 21 30 22 17 7 8 6 3 3 4 5 5 7 8 8 7 5 2 4 6 4 7 9 8 6 8
19 19 20 21 20 21 21 21 23 23 21 20 19 18 15 1 6 2 7 16 18 27 17 7 4 4 3 5 5 3 9 6 7 8 7 6 6 5 5 7 5 8 9 7 7
19 20 21 22 23 23 23 24 24 24 24 22 19 16 6 1 10 20 17 21 8 23 22 7 6 4 4 4 5 5 5 1 4 7 4 7 5 4 8 4 5 9 8 9 7
21 22 22 21 22 24 24 24 25 25 24 23 22 15 2 7 15 20 24 19 8 21 12 11 8 9 4 5 6 7 5 2 2 1 2 6 1 2 6 6 7 9 9 7 8
22 22 22 22 24 25 25 25 25 26 25 25 22 6 4 18 10 7 1 4 10 19 6 18 10 6 4 5 2 3 2 5 1 4 3 4 3 9 4 7 9 9 6 7 7
23 22 23 23 24 26 27 26 25 26 28 22 11 7 8 12 13 27 27 29 19 14 18 3 11 3 2 3 4 3 4 3 4 5 3 6 10 6 9 11 10 8 7 7 6
22 23 24 25 26 27 27 26 24 24 14 3 7 5 9 6 9 23 25 11 7 10 8 6 7 5 2 2 3 7 3 4 6 7 3 5 9 3 6 11 9 8 7 7 6
22 21 23 24 25 27 27 25 17 2 5 6 1 1 8 5 7 6 16 15 4 6 4 4 4 3 2 2 5 4 3 3 4 3 4 3 13 6 6 10 9 9 8 7 7
23 22 21 21 22 23 25 8 3 2 4 8 4 5 6 7 5 3 8 12 4 5 7 4 4 8 9 7 5 4 3 5 4 5 5 7 9 16 6 6 8 9 9 8 8
22 20 20 20 21 23 11 1 5 4 8 11 17 14 30 9 6 5 16 7 6 6 7 4 12 7 7 4 4 3 3 5 5 3 6 8 10 8 7 9 11 13 10 9 6
24 23 21 20 23 7 3 3 10 9 4 7 10 10 9 12 9 9 7 5 6 7 7 9 4 7 7 5 4 5 3 5 7 2 3 1 7 5 5 3 4 6 7 6 10
26 22 18 18 11 11 1 7 10 3 4 7 7 9 10 11 6 12 13 6 2 14 9 7 6 8 5 5 8 4 8 6 4 2 5 4 5 6 6 6 7 9 10 12 10
23 21 14 8 13 6 6 16 16 4 5 6 6 1 8 14 10 8 12 2 10 7 7 10 8 6 5 10 7 10 3 5 3 4 2 2 2 6 2 6 10 12 13 12 11
22 21 14 6 8 12 16 17 1 4 11 5 6 8 7 6 7 7 7 4 6 7 3 10 5 9 12 8 9 3 3 6 4 4 1 7 7 5 5 8 7 4 12 12 12
23 21 18 12 3 4 17 3 3 7 2 6 7 7 11 6 8 10 13 13 11 8 11 4 5 4 5 5 3 5 6 4 4 3 6 3 3 8 8 10 9 8 14 14 13
25 20 20 19 14 10 5 3 9 9 12 3 5 6 9 8 11 9 8 15 14 7 6 10 9 10 4 8 10 7 9 5 6 3 5 3 5 6 7 6 8 7 10 13 13
25 22 17 21 17 8 2 8 13 7 13 4 3 5 5 8 7 10 18 16 13 13 17 8 8 3 7 5 11 5 4 6 4 1 2 3 7 10 4 4 4 7 11 14 14
23 13 20 22 21 11 2 25 8 6 5 24 9 6 10 7 9 17 14 16 13 9 6 7 2 5 7 5 1 9 6 2 2 2 4 4 4 6 9 5 5 6 9 11 10
13 4 12 27 25 5 8 14 21 8 3 15 23 7 7 8 10 8 7 9 21 10 12 6 6 4 6 7 9 3 3 4 4 4 5 3 6 6 6 9 8 9 10 14 16
6 4 23 38 7 5 16 8 7 23 4 3 3 8 8 7 9 11 12 12 12 15 13 8 7 6 8 3 5 7 10 9 5 5 3 4 8 6 7 9 6 8 9 8 9
2 2 16 29 10 12 15 11 10 9 6 2 3 4 4 6 4 5 6 6 9 17 12 8 3 3 5 3 1 4 5 5 5 4 7 5 6 3 4 3 4 7 9 8 9
3 5 3 6 4 14 16 17 7 16 12 1 3 4 2 5 1 4 2 3 2 6 10 15 6 11 15 5 6 5 5 6 7 5 5 6 4 5 2 4 1 5 9 9 10
3 2 2 4 8 11 6 3 21 8 9 3 3 4 3 4 4 4 2 2 4 4 4 7 8 6 5 10 11 13 8 12 9 8 8 8 9 7 4 4 6 8 8 11 10
3 2 2 2 11 15 8 4 16 20 3 11 4 3 5 4 4 3 3 2 2 7 4 0 4 8 7 9 13 11 16 15 17 3 2 6 5 7 4 4 4 9 13 14 16
2 0 3 1 4 9 12 13 5 2 2 4 4 2 5 1 5 6 6 4 3 1 2 1 4 4 5 5 7 16 15 13 8 5 9 7 9 7 5 8 8 6 13 15 15
Wind_Direction
327 329 343 343 342 338 332 331 331 332 336 335 331 326 324 316 306 289 223 238 242 258 265 182 169 157 141 150 150 132 76 218 248 199 249 215 164 279 12 130 116 217 153 177 142
324 332 335 331 330 326 327 327 330 331 334 330 329 323 324 321 313 277 260 256 244 247 258 184 160 139 130 179 158 119 139 220 199 197 236 212 191 175 172 140 88 66 69 126 137
323 323 325 322 322 325 323 325 324 324 326 327 324 322 322 328 334 259 274 256 244 236 245 192 116 122 163 175 196 185 203 210 230 212 185 192 233 177 134 252 210 195 165 137 135
324 320 316 319 321 321 320 320 318 321 322 323 320 319 319 322 247 223 87 6 233 222 214 161 118 153 203 219 191 183 239 189 252 185 148 185 134 199 201 228 219 169 149 144 156
314 315 314 316 316 316 316 315 314 316 316 318 315 316 324 345 246 248 274 309 324 207 199 159 162 144 229 230 159 191 260 202 241 157 171 120 198 194 238 322 119 126 146 157 164
314 313 313 311 310 307 307 308 310 312 314 315 312 311 167 253 263 271 271 276 258 201 189 151 191 195 259 224 170 211 203 57 52 161 171 153 193 144 239 140 136 149 175 169 165
316 315 315 315 312 311 306 303 306 310 310 308 303 268 234 235 238 263 136 220 235 210 178 206 157 167 175 280 248 84 121 38 245 150 235 114 303 236 194 159 162 178 163 162 191
317 317 318 319 317 314 311 305 306 307 306 300 282 170 243 260 257 256 249 268 274 231 216 138 193 223 184 251 35 96 53 101 278 150 250 142 263 264 187 165 189 175 168 173 194
315 317 321 324 324 321 313 306 305 304 308 248 138 172 263 287 240 255 239 214 199 217 198 116 130 184 356 201 31 11 225 208 310 202 131 174 264 283 174 182 184 172 174 179 194
311 316 321 322 323 324 318 313 307 118 101 138 148 294 269 238 244 237 215 204 157 123 95 123 77 176 73 106 214 236 236 231 243 243 184 224 264 256 200 199 192 172 173 184 193
302 307 310 315 321 327 329 333 6 189 213 201 203 241 289 337 263 222 174 140 114 101 156 165 143 206 203 203 190 199 203 249 268 243 182 237 252 274 207 205 185 185 180 188 200
295 304 302 311 319 319 310 285 62 298 295 236 246 249 265 303 316 306 163 133 148 165 113 84 221 187 201 175 181 166 229 268 275 278 162 272 272 266 186 224 202 189 184 186 186
283 294 306 313 319 321 307 101 342 356 256 263 204 216 222 158 222 253 194 145 140 153 169 187 184 166 171 200 175 203 175 233 241 314 240 174 307 299 266 250 174 182 180 170 185
282 284 298 314 300 329 223 341 340 330 293 270 205 249 173 144 237 210 188 152 144 189 170 209 198 174 169 196 168 253 217 230 268 39 272 135 271 284 279 274 226 193 184 183 184
277 275 285 302 312 301 316 326 333 147 288 247 204 222 177 171 154 215 175 112 166 177 142 213 158 177 173 213 165 232 142 196 229 209 108 272 71 262 351 282 257 213 195 185 180
274 272 263 256 267 271 315 315 197 74 243 269 194 177 119 201 188 146 158 145 160 162 245 203 192 166 198 214 175 171 106 49 56 96 57 235 160 278 216 215 256 177 189 186 174
275 260 242 213 223 264 327 328 126 206 216 217 203 162 178 163 197 165 170 181 182 162 204 170 187 195 145 151 87 94 71 339 338 8 225 105 99 234 253 242 229 224 189 176 170
272 262 232 219 239 262 319 84 218 216 203 292 165 148 181 153 208 187 156 188 211 160 163 184 226 170 178 169 183 180 155 157 230 228 260 136 232 250 228 290 272 216 179 158 165
269 259 222 198 213 217 123 198 223 175 196 227 118 141 200 192 158 179 214 205 187 185 203 174 227 136 165 155 147 179 153 197 136 163 60 244 288 312 255 355 26 115 145 167 168
250 239 240 185 186 163 128 225 221 198 152 202 197 169 187 185 174 190 181 210 206 172 141 196 175 206 198 96 29 168 161 110 17 197 231 279 286 240 291 288 167 163 180 172 162
235 231 191 180 154 176 211 226 221 295 305 185 219 193 214 178 180 193 225 218 191 171 174 135 136 268 106 177 167 125 163 58 124 149 187 237 259 220 239 245 223 194 189 180 175
232 218 163 154 185 198 228 212 326 221 266 273 202 198 194 184 183 199 205 198 180 162 172 184 153 193 200 195 174 206 187 168 161 231 213 183 263 247 264 278 204 163 192 176 192
221 203 180 178 200 214 230 243 265 253 271 298 270 211 191 192 188 174 169 218 161 176 155 169 196 158 324 6 313 172 179 150 120 95 190 181 263 186 265 277 224 159 168 168 172
138 189 156 231 228 211 219 234 261 241 276 68 316 305 134 160 230 148 142 71 94 157 167 160 158 191 221 203 160 186 181 184 155 137 184 216 209 266 183 47 253 152 163 167 183
135 236 308 176 206 215 179 249 218 250 225 122 235 261 189 161 98 124 200 13 99 249 116 144 205 182 192 196 191 211 193 181 190 191 169 214 205 229 178 183 193 170 151 158 170
166 164 158 280 222 218 224 207 237 218 276 222 251 167 25 56 53 104 61 82 89 19 99 34 216 176 214 200 193 214 216 194 207 124 94 146 226 202 172 170 185 156 170 183 186
212 311 313 100 241 207 212 214 237 227 2 154 122 6 59 218 277 245 216 261 233 45 0 316 138 106 220 185 132 243 208 190 198 188 161 187 212 156 176 205 220 192 184 194 193